Regional Weather Roundup
Issued by NWS Northern Indiana

Home | Current Version | Previous Version | Text Only | Print | Product List | Glossary Off
Versions: 1 2 3 4 5 6 7 8 9 10 11 12 13 14 15 16 17 18 19 20 21 22 23 24 25 26 27 28 29 30 31 32 33 34 35 36 37 38 39 40 41 42 43 44 45 46 47 48 49 50

000
ASUS43 KIWX 242310
RWRIWX

KIWX WEATHER ROUNDUP
NATIONAL WEATHER SERVICE NORTHERN INDIANA
700 PM EDT MON APR 24 2017

NOTE: "FAIR" INDICATES FEW OR NO CLOUDS BELOW 12,000 FEET WITH NO
SIGNIFICANT WEATHER AND/OR OBSTRUCTIONS TO VISIBILITY.

* THESE STATIONS ARE NOT UNDER NWS QUALITY CONTROL. THEY ALSO MAY NOT
  REPORT WEATHER SUCH AS PRECIPITATION OR FOG.

INZ001>027-250000-
NORTHERN INDIANA

CITY           SKY/WX    TMP DP  RH WIND       PRES   REMARKS
GARY*          PTSUNNY   61  36  39 NE6       29.82F
VALPARAISO     SUNNY     73  31  21 E14       29.82F
MICHIGAN CITY* SUNNY     72  32  23 SE9       29.82F
LAPORTE*       SUNNY     72  33  24 SE14      29.83F
KNOX*          SUNNY    N/A N/A N/A E16       29.82S
SOUTH BEND     SUNNY     70  34  26 E12       29.84F
ELKHART*       SUNNY     70  30  23 E12       29.84F
GOSHEN         CLOUDY    68  34  28 E13       29.84F
MONTICELLO*    SUNNY     73  32  22 SE12      29.80F
LOGANSPORT*    SUNNY     70  36  28 E14       29.81F
ROCHESTER*     SUNNY     72  32  23 E15G21    29.83F
WARSAW*        SUNNY     68  37  32 E13       29.84F
ANGOLA*        SUNNY     66  36  32 E12       29.87F
FORT WAYNE     MOSUNNY   68  39  34 NE17      29.84F
HUNTINGTON*    SUNNY     69  37  31 E12       29.83S
PERU/GRISSOM   SUNNY     72  37  28 E14       29.79F
MARION*        CLOUDY    72  36  26 E10       29.81F

$$
INZ028>050-250000-
CENTRAL INDIANA

CITY           SKY/WX    TMP DP  RH WIND       PRES   REMARKS
LAFAYETTE      SUNNY     70  38  31 E12       29.78F
KOKOMO*        SUNNY     72  37  28 E14G22    29.81F
MUNCIE*        CLOUDY    76  32  20 NE15      29.80F
INDIANAPOLIS   MOSUNNY   75  44  33 E13       29.77F

$$
MIZ043>046-050>051-056>058-064>065-071>073-077>080-250000-
SOUTHWEST LOWER MICHIGAN

CITY           SKY/WX    TMP DP  RH WIND       PRES   REMARKS
BATTLE CREEK   CLOUDY    70  29  21 SE10      29.88F
BENTON HARBOR  MOSUNNY   72  27  18 E13       29.83F
COLDWATER*     CLOUDY    67  29  25 E13G18    29.88F
HILLSDALE*     CLOUDY    63  32  31 E9G16     29.89F
HOLLAND        MOSUNNY   70  32  24 SE10      29.86F
GRAND RAPIDS   PTSUNNY   69  31  24 E10       29.87F
KALAMAZOO      MOSUNNY   71  27  19 E9G20     29.87F
STURGIS*       CLOUDY    69  34  27 E16G22    29.86F
THREE RIVERS*  FAIR      69  33  26 E10G17    29.86F

$$
OHZ001>008-015>018-024>025-250000-
NORTHWEST OHIO

CITY           SKY/WX    TMP DP  RH WIND       PRES   REMARKS
WAUSEON*       FAIR      63  34  34 E22G28    29.90F
DEFIANCE       SUNNY     64  33  31 E16G24    29.88F
FINDLAY        SUNNY     67  37  33 NE14G24   29.86F
TOLEDO EXPRESS SUNNY     60  37  42 E14       29.91F
TOLEDO METCALF SUNNY     59  41  51 E15G24    29.92F
LIMA           PTSUNNY   69  42  37 NE14G23   29.84F

$$
AND FOR LAKE MICHIGAN COASTAL AND OPEN LAKE BUOY OBSERVATIONS

STATION/POSITION TEMP    WIND        PRES    VSBY  WAVE
                 AIR SEA DIR/SP/G                  HT/PER
                 (F)     (DEG/KT/KT) (MB)    (MI)  (FT/S)
CALUMET HARBOR    56     350/  5/  7 1009.5F
MICHIGAN CITY     72     120/ 13/ 16   N/A
BURNS HARBOR      58      50/  5/  8 1010.2F
SOUTH LAKE BUOY   48 43   30/  6/  6 1011.8          1/ 5
4 MI NW BRIDGMAN  65 52  140/ 10/ 14 1010.0          1/ 2

$$
&&




USA.gov is the U.S. government's official web portal to all federal, state and local government web resources and services.